[[{"header":{"parameterUnit":"m.s-1","parameterCategory":1,"la1":30.2991,"la2":30.254,"lo1":-89.0895,"lo2":-89.0444,"dy":0.0017,"dx":0.0017,"nx":28,"ny":28,"refTime":"2024-06-05T09:00:00:Z","depth":0,"parameterNumber":2,"parameterNumberName":"U-component_of_WINDS"},"data":[0,0,0,0,0,0,0,0,0,0,0,0,0,0,0,0,0,0,0,0,0,0,0,0,0,0,0,0,0,0,0,0,0,0,0,0,0,0,0,0,0,0,0,0,0,0,0,0,0,0,0,0,0,0,0,0,0,0,-0.2424,-0.2425,0,-0.2473,-0.2474,-0.2474,-0.2504,-0.2504,-0.2504,-0.2504,-0.2555,-0.2556,-0.2558,0,0,0,0,0,0,0,0,0,0,0,0,0,-0.2359,-0.236,-0.2424,-0.2425,-0.2426,-0.2473,-0.2474,-0.2474,-0.2504,-0.2504,-0.2504,-0.2504,-0.2555,-0.2556,-0.2558,0,0,0,0,0,0,0,0,0,0,0,0,0,-0.2395,-0.236,-0.2424,-0.2446,-0.2448,-0.2473,-0.2474,-0.2474,-0.2504,-0.2504,-0.2504,-0.2504,-0.2554,-0.2556,-0.2558,-0.2565,0,0,-0.2563,-0.2564,0,0,0,0,0,0,0,0,-0.2393,-0.2398,-0.2442,-0.2445,-0.2447,-0.2483,-0.2469,-0.2505,-0.2504,-0.2483,-0.2504,-0.2505,-0.2531,-0.2535,-0.2543,-0.2567,-0.2569,-0.2564,-0.2565,-0.2565,-0.2566,0,0,0,0,0,0,0,-0.2391,-0.2396,-0.2444,-0.2443,-0.2446,-0.2454,-0.2459,-0.2476,-0.2505,-0.2485,-0.2487,-0.2492,-0.2532,-0.2541,-0.2545,-0.257,-0.2564,-0.2565,-0.2566,-0.2567,-0.2603,-0.2603,0,0,0,0,0,0,-0.2384,-0.2393,-0.2442,-0.2445,-0.242,-0.2455,-0.2461,-0.2471,-0.2505,-0.251,-0.2492,-0.2493,-0.2538,-0.2543,-0.2547,-0.2558,-0.2565,-0.2567,-0.2568,-0.2603,-0.2603,-0.2603,0,0,0,0,0,0,-0.2383,-0.2388,-0.244,-0.242,-0.2427,-0.2456,-0.2467,-0.2472,-0.2481,-0.251,-0.2516,-0.2496,-0.2539,-0.2544,-0.256,-0.256,-0.2568,-0.257,-0.2603,-0.2603,-0.2603,-0.2579,0,0,0,0,0,0,-0.2381,-0.2388,-0.239,-0.242,-0.2428,-0.2452,-0.2467,-0.2473,-0.2484,-0.2486,-0.2516,-0.2521,-0.2539,-0.2557,-0.2562,-0.2563,-0.2571,-0.2604,-0.2603,-0.2603,-0.258,-0.2578,-0.2577,0,0,0,0,0,-0.2378,-0.2382,-0.239,-0.2396,-0.2432,-0.2452,-0.2457,-0.2478,-0.2484,-0.2487,-0.2506,-0.252,-0.2559,-0.2559,-0.2564,-0.2565,-0.2604,-0.2603,-0.2603,-0.2581,-0.2579,-0.2577,0,0,0,0,0,0,-0.2352,-0.2386,-0.2396,-0.2409,-0.2427,-0.2457,-0.2462,-0.2475,-0.2492,-0.2494,-0.252,-0.2526,-0.254,-0.2554,-0.2553,-0.2574,-0.2583,-0.2584,-0.2564,-0.2562,-0.2561,-0.2557,-0.2573,0,0,0,0,0,-0.2347,-0.2361,-0.239,-0.2398,-0.2407,-0.2433,-0.2443,-0.2457,-0.2478,-0.2486,-0.2506,-0.2526,-0.2543,-0.2553,-0.257,-0.2582,-0.259,-0.2586,-0.2584,-0.2583,-0.2583,-0.2592,-0.259,-0.2602,-0.2602,-0.2602,0,0,-0.2338,-0.2359,-0.2366,-0.2394,-0.241,-0.2424,-0.2439,-0.2453,-0.2464,-0.2488,-0.2505,-0.252,-0.2544,-0.2558,-0.2566,-0.2571,-0.2582,-0.2582,-0.2581,-0.2582,-0.2591,-0.259,-0.2589,-0.2602,-0.2602,-0.2602,0,0,-0.2329,-0.2346,-0.2355,-0.2371,-0.2395,-0.2412,-0.2414,-0.2442,-0.2454,-0.247,-0.2489,-0.2503,-0.2531,-0.2547,-0.2559,-0.2557,-0.2571,-0.2562,-0.2553,-0.2561,-0.256,-0.2559,-0.2559,-0.2559,-0.2562,-0.2562,-0.2562,0,-0.2315,-0.2337,-0.2358,-0.2371,-0.2383,-0.2405,-0.2416,-0.243,-0.2459,-0.2467,-0.2472,-0.2509,-0.2526,-0.2545,-0.2545,-0.2553,-0.2557,-0.2559,-0.2558,-0.2558,-0.2557,-0.2558,-0.2557,-0.2561,-0.2561,-0.2561,-0.2561,0,-0.2319,-0.2333,-0.2338,-0.2365,-0.2377,-0.2389,-0.2413,-0.2423,-0.2436,-0.2453,-0.2471,-0.2492,-0.2515,-0.252,-0.2533,-0.2541,-0.2544,-0.2553,-0.2562,-0.2555,-0.2555,-0.2556,-0.2559,-0.256,-0.256,-0.256,0,0,-0.2294,-0.2333,-0.2335,-0.2348,-0.2376,-0.2388,-0.2401,-0.2422,-0.2431,-0.245,-0.2462,-0.2485,-0.2495,-0.2508,-0.2524,-0.253,-0.2528,-0.2539,-0.254,-0.2537,-0.2539,-0.2532,-0.2532,-0.2537,-0.2537,-0.2537,-0.2537,0,-0.229,-0.2314,-0.2334,-0.235,-0.2364,-0.2386,-0.2397,-0.2416,-0.2432,-0.2447,-0.2464,-0.2481,-0.2491,-0.25,-0.2507,-0.2527,-0.2529,-0.2527,-0.2549,-0.255,-0.2543,-0.2532,-0.2525,-0.2524,-0.2537,-0.2538,-0.2538,0,-0.2289,-0.2307,-0.2324,-0.2352,-0.2359,-0.2368,-0.239,-0.2403,-0.2426,-0.2437,-0.2452,-0.2468,-0.2484,-0.2491,-0.2513,-0.2511,-0.2521,-0.2532,-0.2532,-0.2536,-0.2543,-0.2536,-0.2524,-0.2524,-0.2538,-0.2538,-0.2538,0,-0.227,-0.2299,-0.2313,-0.2324,-0.2356,-0.2362,-0.2376,-0.2399,-0.241,-0.243,-0.2438,-0.2458,-0.247,-0.2486,-0.2507,-0.251,-0.2527,-0.2536,-0.2537,-0.2537,-0.254,-0.254,-0.253,-0.2546,-0.2546,-0.2546,-0.2546,0,-0.2264,-0.2274,-0.2306,-0.2315,-0.2327,-0.235,-0.2362,-0.2377,-0.2397,-0.241,-0.243,-0.2442,-0.2469,-0.2484,-0.2501,-0.2517,-0.2522,-0.2532,-0.2537,-0.2531,-0.2529,-0.2538,-0.2539,-0.2546,-0.2546,-0.2546,-0.2546,0,-0.2246,-0.2267,-0.2284,-0.2313,-0.2321,-0.2329,-0.2354,-0.2364,-0.2381,-0.2397,-0.2402,-0.2429,-0.2448,-0.2471,-0.2498,-0.2509,-0.2524,-0.253,-0.2516,-0.2519,-0.2519,-0.2519,-0.2515,-0.2516,-0.253,-0.253,-0.253,0,-0.2241,-0.2249,-0.2279,-0.2289,-0.2302,-0.2317,-0.233,-0.2353,-0.2365,-0.2391,-0.2398,-0.2418,-0.2436,-0.2466,-0.2488,-0.2509,-0.2516,-0.2513,-0.2519,-0.2513,-0.2517,-0.2516,-0.2518,-0.2512,-0.2512,-0.2511,-0.2511,0,-0.223,-0.224,-0.2256,-0.2277,-0.229,-0.2308,-0.2326,-0.2333,-0.236,-0.2373,-0.2392,-0.2406,-0.2433,-0.2453,-0.2477,-0.2492,-0.2506,-0.2509,-0.2511,-0.2505,-0.2497,-0.2502,-0.2512,-0.2509,-0.2509,-0.251,-0.251,-0.251,-0.2219,-0.2227,-0.225,-0.2267,-0.2283,-0.23,-0.2311,-0.2329,-0.2346,-0.2369,-0.2382,-0.2401,-0.2424,-0.2457,-0.2472,-0.2488,-0.2493,-0.2495,-0.2495,-0.2496,-0.2494,-0.2494,-0.2492,-0.2492,-0.2492,-0.2492,-0.2492,0,-0.2209,-0.2225,-0.2241,-0.2265,-0.228,-0.2291,-0.2312,-0.2324,-0.234,-0.236,-0.2377,-0.24,-0.242,-0.2443,-0.2465,-0.2473,-0.2481,-0.2478,-0.2478,-0.2482,-0.2488,-0.2485,-0.2472,-0.2472,-0.2472,-0.2472,-0.2472,-0.2472,-0.2206,-0.2222,-0.2234,-0.2258,-0.2274,-0.2293,-0.2304,-0.2319,-0.2335,-0.2359,-0.2376,-0.2391,-0.2413,-0.2436,-0.2455,-0.2462,-0.2469,-0.2465,-0.2474,-0.2479,-0.2481,-0.2483,-0.248,-0.2466,-0.2466,-0.2466,-0.2466,-0.2466]},{"header":{"parameterUnit":"m.s-1","parameterCategory":1,"la1":30.2991,"la2":30.254,"lo1":-89.0895,"lo2":-89.0444,"dy":0.0017,"dx":0.0017,"nx":28,"ny":28,"refTime":"2024-06-05T09:00:00:Z","depth":0,"parameterNumber":3,"parameterNumberName":"V-component_of_WINDS"},"data":[0,0,0,0,0,0,0,0,0,0,0,0,0,0,0,0,0,0,0,0,0,0,0,0,0,0,0,0,0,0,0,0,0,0,0,0,0,0,0,0,0,0,0,0,0,0,0,0,0,0,0,0,0,0,0,0,0,0,5.5292,5.5294,0,5.5426,5.5428,5.5429,5.538,5.5377,5.5374,5.5372,5.5503,5.5509,5.5515,0,0,0,0,0,0,0,0,0,0,0,0,0,5.4985,5.4991,5.5292,5.5294,5.5295,5.5426,5.5428,5.543,5.5381,5.5377,5.5374,5.537,5.5501,5.5508,5.5516,0,0,0,0,0,0,0,0,0,0,0,0,0,5.5119,5.4993,5.5292,5.5287,5.5288,5.5426,5.5428,5.543,5.5382,5.5377,5.5373,5.5369,5.5498,5.5507,5.5517,5.5665,0,0,5.5545,5.555,0,0,0,0,0,0,0,0,5.5111,5.513,5.5286,5.5288,5.5289,5.5382,5.5368,5.5509,5.5383,5.5346,5.5372,5.5366,5.5466,5.5478,5.5513,5.5671,5.5677,5.5546,5.5552,5.5556,5.5559,0,0,0,0,0,0,0,5.5102,5.5124,5.5345,5.5288,5.529,5.5275,5.5289,5.5394,5.5429,5.5349,5.5346,5.5363,5.5466,5.5504,5.5515,5.5679,5.5546,5.5554,5.556,5.5564,5.5963,5.5967,0,0,0,0,0,0,5.5093,5.5117,5.5341,5.5349,5.5187,5.5285,5.53,5.5357,5.5428,5.5435,5.5366,5.536,5.549,5.5504,5.552,5.5696,5.5556,5.5565,5.557,5.5958,5.5964,5.5969,0,0,0,0,0,0,5.5087,5.5114,5.5335,5.5232,5.5259,5.5295,5.5358,5.5362,5.54,5.5441,5.5447,5.5399,5.5487,5.5506,5.5629,5.57,5.5569,5.5578,5.5952,5.596,5.5966,5.6052,0,0,0,0,0,0,5.5078,5.5112,5.5171,5.5234,5.5265,5.5445,5.5363,5.5368,5.5417,5.541,5.5474,5.548,5.5485,5.5615,5.5638,5.5711,5.5585,5.5946,5.5955,5.5964,5.6043,5.6061,5.6077,0,0,0,0,0,5.5067,5.5189,5.5174,5.5201,5.534,5.5449,5.5467,5.5472,5.5423,5.5481,5.5507,5.5478,5.5689,5.5628,5.5654,5.573,5.5941,5.5953,5.5963,5.6035,5.6058,5.6077,0,0,0,0,0,0,5.5131,5.5197,5.5181,5.5327,5.5383,5.5441,5.5515,5.5496,5.5566,5.5556,5.5557,5.5572,5.5698,5.5726,5.5658,5.5876,5.5807,5.5824,5.5853,5.5875,5.5891,5.5881,5.5593,0,0,0,0,0,5.5163,5.5249,5.53,5.5424,5.5453,5.5479,5.5527,5.5526,5.5583,5.5606,5.5642,5.5696,5.5775,5.5826,5.5901,5.6047,5.6058,5.6111,5.6128,5.6142,5.6156,5.6233,5.6256,5.6005,5.6005,5.6005,0,0,5.5227,5.5274,5.5328,5.5438,5.5481,5.5567,5.5499,5.5594,5.5657,5.562,5.5738,5.5766,5.5827,5.5961,5.6022,5.5988,5.6228,5.6156,5.6167,5.6174,5.6246,5.627,5.6291,5.6013,5.6012,5.601,0,0,5.539,5.5435,5.5542,5.5586,5.5653,5.567,5.5695,5.5756,5.5773,5.5892,5.5865,5.5939,5.6075,5.6119,5.6159,5.6335,5.631,5.6359,5.6448,5.6523,5.6542,5.656,5.6621,5.6643,5.6373,5.6374,5.6374,0,5.5461,5.5593,5.5598,5.5695,5.5742,5.5714,5.582,5.5863,5.595,5.5982,5.5944,5.6112,5.6152,5.6294,5.6337,5.6372,5.6398,5.6352,5.654,5.6557,5.6573,5.6631,5.6654,5.6379,5.6378,5.6378,5.6377,0,5.5676,5.5768,5.5845,5.5932,5.5988,5.6089,5.6106,5.6162,5.6156,5.6175,5.6295,5.6341,5.6423,5.6457,5.6451,5.6598,5.6575,5.6539,5.6469,5.6603,5.6657,5.6679,5.6387,5.6385,5.6383,5.6382,0,0,5.5884,5.5971,5.5999,5.6036,5.6107,5.6177,5.6275,5.6357,5.6403,5.6464,5.6544,5.6659,5.6625,5.667,5.6669,5.6734,5.6868,5.6689,5.669,5.6719,5.703,5.7057,5.7082,5.6852,5.6857,5.686,5.7024,0,5.605,5.6225,5.6231,5.6389,5.6472,5.6445,5.653,5.6581,5.6601,5.6672,5.6693,5.6774,5.6724,5.6751,5.6814,5.6839,5.693,5.6827,5.6924,5.6928,5.6909,5.7111,5.714,5.7293,5.7046,5.705,5.7052,0,5.6268,5.6337,5.6504,5.6561,5.6595,5.6672,5.6746,5.6815,5.6871,5.6881,5.6931,5.692,5.7016,5.6945,5.7077,5.7006,5.7046,5.7064,5.707,5.7078,5.6997,5.7123,5.7342,5.7365,5.7086,5.7083,5.7081,0,5.64,5.6534,5.665,5.6684,5.6753,5.6807,5.6838,5.689,5.6938,5.7002,5.7033,5.7107,5.7147,5.7204,5.7211,5.7159,5.7343,5.7272,5.7351,5.7351,5.7391,5.7388,5.7618,5.7419,5.7418,5.7418,5.7418,0,5.6585,5.6687,5.671,5.6782,5.6895,5.6899,5.701,5.7037,5.7083,5.7157,5.7138,5.7207,5.7213,5.7284,5.729,5.7397,5.7416,5.7424,5.7424,5.7426,5.7424,5.7451,5.744,5.7424,5.7423,5.7422,5.7421,0,5.6751,5.6771,5.6896,5.6951,5.6968,5.7048,5.7094,5.7161,5.7179,5.7273,5.7295,5.7322,5.7404,5.7417,5.7513,5.7517,5.7644,5.7634,5.7626,5.7624,5.7702,5.7694,5.7956,5.799,5.777,5.7772,5.7774,0,5.6867,5.6946,5.701,5.7059,5.7093,5.7172,5.7221,5.7228,5.7279,5.7348,5.7405,5.7486,5.755,5.7682,5.7708,5.7781,5.7771,5.7858,5.7782,5.778,5.777,5.7765,5.7772,5.7872,5.7875,5.7877,5.7878,0,5.707,5.7076,5.7148,5.7224,5.7284,5.7343,5.7399,5.744,5.7453,5.7511,5.7596,5.7646,5.7743,5.7822,5.7894,5.7923,5.7902,5.7902,5.7924,5.7925,5.7917,5.7921,5.7665,5.7896,5.7894,5.7893,5.7892,5.7891,5.7214,5.7281,5.7337,5.7417,5.746,5.7513,5.7578,5.7604,5.7675,5.7756,5.7755,5.7847,5.7897,5.7992,5.8026,5.8096,5.8067,5.8099,5.8107,5.8115,5.8122,5.7907,5.8109,5.8108,5.8108,5.8107,5.8107,0,5.7415,5.7449,5.7523,5.7602,5.7665,5.7642,5.7702,5.7755,5.7837,5.7887,5.7951,5.8046,5.8122,5.8154,5.8228,5.8278,5.827,5.8297,5.8293,5.8299,5.8144,5.8117,5.8302,5.8302,5.8302,5.8302,5.8302,5.8302,5.7527,5.7639,5.7651,5.7783,5.7815,5.7906,5.7942,5.7989,5.8029,5.8137,5.8201,5.8222,5.8264,5.834,5.8408,5.8415,5.8442,5.8473,5.8476,5.833,5.831,5.8292,5.8266,5.848,5.848,5.8626,5.8627,5.8628]}]]